Flag for Canada Weather past 2 weeks in Owen Sound, Ontario, Canada

Now
68 °F

Passing clouds.


Feels Like: 68 °F
Forecast: 67 / 84 °F
Wind: 7 mph from Northeast

Location: Wiarton

Current Time: Sep 4, 2015 at 12:08:34 AM

Latest Report: Sep 3, 2015 at 11:00 PM


Visibility: 10 mi

Pressure: 29.96 "Hg

Humidity: 94%

Dew point: 66 °F

Location of Owen SoundLocation

Historic Weather in Owen Sound — Graph

°F

Owen Sound temperature yesterday

Maximum temperature yesterday: 77 °F (at 1:00 PM)
Minimum temperature yesterday: 66 °F (at 5:00 AM)
Average temperature yesterday: 71 °F

Past Weeks' High & Low Weather Summary

 TemperatureHumidityPressure
High84 °F (Sep 2, 2:00 PM)100% (Aug 20, 8:49 AM)30.19 "Hg (Aug 20, 8:49 AM)
Low52 °F (Aug 22, 12:00 AM)54% (Aug 22, 2:00 PM)29.60 "Hg (Aug 20, 6:00 AM)
Average66 °F84%29.99 "Hg
* Reported Aug 19 11:00 PM — Sep 3 11:00 PM, Owen Sound, Weather by CustomWeather, © 2015

Note: Actual official high and low records may vary slightly from our data, if they occured in-between our weather recording intervals... More about our weather records

Advertising

Owen Sound weather history for previous 24 hours

 ConditionsComfort  
Time TempWeatherWind HumidityBarometerVisibility
11:00 PM
Thu, Sep 3
68 °FPassing clouds.7 mph94%29.96 "Hg10 mi
10:00 PM68 °FMostly cloudy.No wind94%29.96 "Hg10 mi
9:00 PM68 °FPartly cloudy.3 mph94%29.93 "Hg10 mi
8:00 PM70 °FMostly cloudy.5 mph94%29.94 "Hg8 mi
7:00 PM73 °FMostly cloudy.7 mph89%29.95 "Hg8 mi
6:00 PM73 °FMostly cloudy.6 mph89%29.95 "Hg8 mi
5:00 PM75 °FPartly sunny.7 mph83%29.93 "Hg10 mi
4:00 PM72 °FMostly cloudy.8 mph94%29.93 "Hg8 mi
3:00 PM75 °FPartly sunny.7 mph89%29.94 "Hg10 mi
2:00 PM75 °FBroken clouds.6 mph89%29.95 "Hg8 mi
1:00 PM77 °FScattered clouds.6 mph83%29.95 "Hg8 mi
12:00 PM73 °FFog.6 mph94%29.96 "Hg4 mi
11:00 AM72 °FFog.5 mph100%29.97 "Hg2 mi
10:00 AM72 °FFog.No wind94%29.97 "Hg1 mi
9:00 AM70 °FFog.No wind94%29.96 "Hg1 mi
8:00 AM66 °FFog.No wind100%29.97 "Hg0 mi
7:00 AM66 °FFog.No wind100%29.96 "Hg0 mi
6:00 AM66 °FFog.No wind100%29.95 "Hg0 mi
5:00 AM66 °FFog.No wind94%29.94 "Hg1 mi
4:00 AM68 °FFog.No wind94%29.94 "Hg0 mi
3:00 AM68 °FFog.2 mph94%29.93 "Hg1 mi
2:00 AM70 °FFog.No wind94%29.93 "Hg3 mi
1:00 AM72 °FFog.No wind94%29.93 "Hg3 mi
12:00 AM72 °FFog.6 mph94%29.94 "Hg3 mi
Weather by CustomWeather, © 2015

See weather overviewHow to use our weather pages